DECAYED

STARLINK-1925, 46756 (Decayed)

Orbit data source: Space-Track

STARLINK-1925, 46756 was a payload satellite owned by SpaceX/Seattle (US) in LEO that was launched on Sat, 24 Oct 2020 UTC via an FALCON 9 launch vehicle from the Air Force Eastern Test Range (AFETR). Payload-class satellites include a variety of spacecraft equipped with specific instruments for various scientific and technological missions. These include communications satellites like Starlink; space stations such as the ISS; scientific satellites like the Hubble; Earth observation satellites from companies like Planet Labs, Umbra, and HawkEye 360; GPS; miniature CubeSats for education and research; and military/defense satellites.

Not visible in the next 10 days
Identifier
46756, 2020-074T
Orbit
Decayed
Country
Flag of USUS
Related business
Manufacturer
SpaceX/Seattle
Mission
Decayed Commercial Communications
Bus & Motor
STARLINK, Unknown motor
Mass
260 kg wet, ~248 kg dry
Launch date (UTC)
2020-10-24 (5 years ago)
Launch vehicle
FALCON 9
Launch site
Air Force Eastern Test Range (AFETR)
Object type
Payload
Rocket body
Debris
Shape & HBR
Box + 1 Pan, 10.1 m
Radar Cross Section
13.562 m², Large (>1 m²)

Expand to show TLE details & history
Last TLE update: 7 months ago

TLE from 7 months ago
0 STARLINK-1925
1 46756U 20074T   25083.85108310  .84874051  12507-4  12239-2 0  9990
2 46756  53.0138  42.9240 0008408 144.1187 301.5151 16.48268014244654
Epoch: 2025-03-24T20:25Z
TLE epoch observation values (Epoch: 2025-03-24T20:25:33.579Z)
Latitude
52.94432°
Longitude
-3.40412°
Altitude
147.454 km
Speed
7.826 km/s
True Right ascension
08h 22m 11s
True Declination
52° 45' 48"
Sunlit
Object was in full shadow at epoch
Visualization orbit readout
Latitude
Unknown
Longitude
Unknown
Altitude
Unknown
Speed
Unknown
Apparent Right ascension
Unknown
Apparent Declination
Unknown
Sunlit
N/A
Visualization observer readout
Local Sidereal Time
14:02:20
Azimuth
Unknown
Elevation
Unknown
Doppler factor
Unknown
Orbital elements
Apogee altitude
149.678 km
Perigee altitude
138.71 km
Semi-major axis
6,522.331 km
Eccentricity
0.00084
Inclination
53.0138°
RAAN
42.924°
Arg. of periapsis
144.1187°
True anomaly
301.43292°
Mean anomaly
301.5151°
Eccentric anomaly
301.47401°
Mean motion
4.1204 °/min
Orbital period
87.37 mins
BSTAR
0.0012239
Loading maneuver chart data...
Computing Atmospheric mass density...

Documentation

Showing up to 5 results
|